TimeCST,TemperatureF,Dew PointF,Humidity,Sea Level PressureIn,VisibilityMPH,Wind Direction,Wind SpeedMPH,Gust SpeedMPH,PrecipitationIn,Events,Conditions,WindDirDegrees,DateUTC
12:13 AM,23.0,14.0,68,29.78,10.0,SW,10.4,-,N/A,Snow,Light Snow,230,2012-12-11 06:13:00
12:33 AM,23.0,15.8,74,29.78,10.0,WSW,10.4,-,N/A,,Overcast,240,2012-12-11 06:33:00
12:53 AM,23.0,15.8,74,29.77,10.0,WSW,11.5,-,N/A,Snow,Light Snow,250,2012-12-11 06:53:00
1:13 AM,21.2,15.8,80,29.77,10.0,West,9.2,-,N/A,Snow,Light Snow,260,2012-12-11 07:13:00
1:33 AM,21.2,15.8,80,29.77,10.0,WSW,10.4,-,N/A,,Clear,250,2012-12-11 07:33:00
1:53 AM,21.2,15.8,80,29.78,10.0,West,9.2,-,N/A,,Clear,260,2012-12-11 07:53:00
2:13 AM,21.2,14.0,74,29.79,10.0,West,9.2,-,N/A,,Clear,260,2012-12-11 08:13:00
2:33 AM,19.4,14.0,80,29.80,10.0,West,10.4,-,N/A,,Clear,270,2012-12-11 08:33:00
2:53 AM,19.4,14.0,80,29.80,10.0,West,10.4,-,N/A,,Clear,270,2012-12-11 08:53:00
3:13 AM,19.4,14.0,80,29.80,10.0,WSW,10.4,-,N/A,,Clear,250,2012-12-11 09:13:00
3:33 AM,17.6,12.2,79,29.80,10.0,West,8.1,-,N/A,,Clear,270,2012-12-11 09:33:00
3:53 AM,17.6,12.2,79,29.80,10.0,West,10.4,-,N/A,,Clear,280,2012-12-11 09:53:00
4:13 AM,17.6,12.2,79,29.80,10.0,West,10.4,-,N/A,,Clear,270,2012-12-11 10:13:00
4:33 AM,17.6,12.2,79,29.81,10.0,West,11.5,-,N/A,,Clear,280,2012-12-11 10:33:00
4:53 AM,17.6,12.2,79,29.80,10.0,West,11.5,-,N/A,,Clear,280,2012-12-11 10:53:00
5:13 AM,17.6,12.2,79,29.81,10.0,West,12.7,-,N/A,,Clear,270,2012-12-11 11:13:00
5:33 AM,15.8,10.4,79,29.81,10.0,West,9.2,-,N/A,,Clear,270,2012-12-11 11:33:00
5:53 AM,15.8,10.4,79,29.81,10.0,West,10.4,-,N/A,,Scattered Clouds,270,2012-12-11 11:53:00
6:13 AM,17.6,12.2,79,29.81,10.0,West,10.4,-,N/A,,Mostly Cloudy,260,2012-12-11 12:13:00
6:33 AM,19.4,14.0,80,29.82,10.0,West,10.4,-,N/A,,Overcast,260,2012-12-11 12:33:00
6:53 AM,21.2,14.0,74,29.83,10.0,WSW,9.2,-,N/A,,Overcast,250,2012-12-11 12:53:00
7:13 AM,21.2,14.0,74,29.83,10.0,WSW,8.1,-,N/A,,Overcast,250,2012-12-11 13:13:00
7:33 AM,19.4,14.0,80,29.83,10.0,WSW,6.9,-,N/A,,Overcast,240,2012-12-11 13:33:00
7:53 AM,19.4,14.0,80,29.83,7.0,SW,6.9,-,N/A,,Overcast,230,2012-12-11 13:53:00
8:13 AM,21.2,15.8,80,29.83,10.0,WSW,6.9,-,N/A,,Overcast,240,2012-12-11 14:13:00
8:33 AM,21.2,17.6,86,29.83,10.0,SW,6.9,-,N/A,,Overcast,230,2012-12-11 14:33:00
8:53 AM,23.0,17.6,80,29.84,7.0,SW,11.5,-,N/A,Snow,Light Snow,230,2012-12-11 14:53:00
9:13 AM,23.0,17.6,80,29.84,10.0,SW,9.2,-,N/A,Snow,Light Snow,230,2012-12-11 15:13:00
9:33 AM,23.0,19.4,86,29.84,10.0,SW,8.1,-,N/A,,Overcast,220,2012-12-11 15:33:00
9:53 AM,23.0,19.4,86,29.84,10.0,WSW,8.1,-,N/A,,Overcast,240,2012-12-11 15:53:00
10:13 AM,26.6,21.2,80,29.85,5.0,WSW,10.4,-,N/A,Snow,Light Snow,250,2012-12-11 16:13:00
10:33 AM,26.6,23.0,86,29.85,5.0,West,15.0,-,N/A,Snow,Light Snow,260,2012-12-11 16:33:00
11:13 AM,28.4,23.0,80,29.85,10.0,WSW,12.7,-,N/A,,Overcast,250,2012-12-11 17:13:00
11:33 AM,30.2,23.0,75,29.85,10.0,West,17.3,-,N/A,,Overcast,270,2012-12-11 17:33:00
11:53 AM,30.2,23.0,75,29.85,10.0,West,16.1,21.9,N/A,,Mostly Cloudy,260,2012-12-11 17:53:00
12:13 PM,30.2,24.8,80,29.86,10.0,West,16.1,-,N/A,,Overcast,270,2012-12-11 18:13:00
12:33 PM,30.2,24.8,80,29.85,10.0,West,15.0,19.6,N/A,,Overcast,260,2012-12-11 18:33:00
12:53 PM,32.0,24.8,75,29.86,10.0,West,12.7,-,N/A,,Overcast,260,2012-12-11 18:53:00
1:13 PM,32.0,24.8,75,29.86,10.0,West,12.7,19.6,N/A,,Overcast,260,2012-12-11 19:13:00
1:33 PM,32.0,24.8,75,29.86,10.0,West,11.5,-,N/A,,Unknown,270,2012-12-11 19:33:00
1:53 PM,32.0,24.8,75,29.86,10.0,West,13.8,-,N/A,,Overcast,270,2012-12-11 19:53:00
2:13 PM,32.0,23.0,69,29.86,10.0,West,12.7,-,N/A,,Overcast,280,2012-12-11 20:13:00
2:33 PM,32.0,23.0,69,29.86,10.0,West,11.5,-,N/A,,Mostly Cloudy,270,2012-12-11 20:33:00
2:52 PM,32.0,23.0,69,29.86,10.0,West,11.5,-,N/A,,Scattered Clouds,280,2012-12-11 20:52:00
3:13 PM,30.2,23.0,75,29.87,10.0,West,6.9,-,N/A,,Clear,270,2012-12-11 21:13:00
3:33 PM,32.0,23.0,69,29.88,10.0,West,8.1,-,N/A,,Mostly Cloudy,280,2012-12-11 21:33:00
3:52 PM,32.0,23.0,69,29.88,10.0,West,9.2,-,N/A,,Overcast,280,2012-12-11 21:52:00
4:13 PM,30.2,23.0,75,29.89,10.0,West,9.2,-,N/A,,Mostly Cloudy,270,2012-12-11 22:13:00
4:33 PM,28.4,23.0,80,29.90,10.0,West,3.5,-,N/A,,Mostly Cloudy,270,2012-12-11 22:33:00
4:52 PM,28.4,21.2,74,29.90,10.0,West,3.5,-,N/A,,Overcast,280,2012-12-11 22:52:00
5:13 PM,28.4,21.2,74,29.91,10.0,WSW,3.5,-,N/A,,Overcast,240,2012-12-11 23:13:00
5:33 PM,28.4,23.0,80,29.90,10.0,Calm,Calm,-,N/A,,Overcast,0,2012-12-11 23:33:00
5:52 PM,28.4,23.0,80,29.91,10.0,Calm,Calm,-,N/A,,Overcast,0,2012-12-11 23:52:00
6:13 PM,28.4,23.0,80,29.91,10.0,Calm,Calm,-,N/A,,Overcast,0,2012-12-12 00:13:00
6:33 PM,28.4,23.0,80,29.91,10.0,Calm,Calm,-,N/A,,Overcast,0,2012-12-12 00:33:00
6:52 PM,28.4,23.0,80,29.91,10.0,Calm,Calm,-,N/A,,Overcast,0,2012-12-12 00:52:00
7:13 PM,28.4,23.0,80,29.91,10.0,SSE,3.5,-,N/A,,Overcast,160,2012-12-12 01:13:00
7:33 PM,26.6,21.2,80,29.91,10.0,SSE,3.5,-,N/A,,Scattered Clouds,160,2012-12-12 01:33:00
7:52 PM,26.6,23.0,86,29.91,10.0,SE,3.5,-,N/A,,Clear,140,2012-12-12 01:52:00
8:13 PM,24.8,21.2,86,29.92,10.0,Calm,Calm,-,N/A,,Clear,0,2012-12-12 02:13:00
8:33 PM,23.0,19.4,86,29.92,10.0,SSE,3.5,-,N/A,,Clear,150,2012-12-12 02:33:00
8:52 PM,21.2,19.4,93,29.92,10.0,SSE,5.8,-,N/A,,Clear,150,2012-12-12 02:52:00
9:13 PM,24.8,21.2,86,29.91,10.0,SE,4.6,-,N/A,,Clear,140,2012-12-12 03:13:00
9:33 PM,24.8,21.2,86,29.91,10.0,SSE,6.9,-,N/A,,Clear,150,2012-12-12 03:33:00
9:53 PM,26.6,21.2,80,29.91,10.0,SE,6.9,-,N/A,,Clear,140,2012-12-12 03:53:00
10:13 PM,26.6,21.2,80,29.92,10.0,SSE,6.9,-,N/A,,Clear,150,2012-12-12 04:13:00
10:33 PM,26.6,21.2,80,29.91,10.0,SSE,6.9,-,N/A,,Clear,150,2012-12-12 04:33:00
10:53 PM,24.8,21.2,86,29.91,10.0,SSE,6.9,-,N/A,,Clear,150,2012-12-12 04:53:00
11:13 PM,26.6,21.2,80,29.91,10.0,SSE,8.1,-,N/A,,Clear,150,2012-12-12 05:13:00
11:33 PM,26.6,21.2,80,29.91,10.0,SSE,8.1,-,N/A,,Clear,150,2012-12-12 05:33:00